"Pseudo-MPEC" for P10HL8W

Created 2018 Jun 19 21:18:05 UT using Find_Orb

Click here for an explanation of pseudo-MPECs

 
 Astrometry: 
     P10HL8W  C2018 06 12pAAstrometryYg%IJhS#6Yj/o0`QHVqcoukbv!fBqa8A%c/X@Ek1F51
     P10HL8W  C2018 06 12.aAnli$cSs=(?Y$@yFka^\'!k:A6+RxFMl8=JUJwr,,06+0\F3@(F51
     P10HL8W  C2018 06 12nuM.=no;:Ba-91b=/redacted;5I%u3pD,'1c%!7h=T\fpPcW]VCF51
     P10HL8W ^C2018 06 13.61502421 44 04.035-39 02 35.31         19.48GVNEOCP568
     P10HL8W ^C2018 06 13.61597021 44 04.526-39 02 35.96         19.52GVNEOCP568
     P10HL8W ^C2018 06 13.61691621 44 05.021-39 02 36.59         19.54GVNEOCP568
     P10HL8W ^C2018 06 15.58650422 02 17.919-39 20 27.31         19.44GVNEOCP568
     P10HL8W ^C2018 06 15.58744922 02 18.442-39 20 27.73         19.52GVNEOCP568
     P10HL8W ^C2018 06 15.58839422 02 18.956-39 20 28.07         19.49GVNEOCP568
     P10HL8W ^C2018 06 15.58939822 02 19.513-39 20 28.51         19.50GVNEOCP568
     P10HL8W ^C2018 06 15.59034222 02 20.030-39 20 28.94         19.51GVNEOCP568
     P10HL8W ^C2018 06 15.59128822 02 20.544-39 20 29.33         19.50GVNEOCP568
     P10HL8W |C2018 06 19tRiw1d1'jUgKfm5EngfZ#R*TobkL_Ek4seewx.^CcKn)?])3cpyD807
     P10HL8W |C2018 06 19N,((!DM')s'ta%w`35)Q`Q4%5qmxhFvR%x.I%5SR=M:v$T/9]:4)807
     P10HL8W |C2018 06 19Y#BMR^YW6A[p14HN;$tpg3S(gBe!Ee'!..TFBe7=F-N4/V*NEOCP807

Station data:
(568) Mauna Kea  (N19.826116 W155.472200)  US/Hawaii.
(807) Cerro Tololo Observatory, La Serena  (S30.169136 W70.805900)  Chile.
   1.5-m Ritchey-Chrétien.
(F51) Pan-STARRS 1, Haleakala  (N20.707235 W156.255910)  US/Hawaii.
   Observers N. Primak, A. Schultz, S. Watters, J. Thiel, T. Goggia. Measurer
   PS1 Science Consortium. 1.8-m Ritchey-Chrétien + CCD.

Orbital elements:  P10HL8W
   Perihelion 2018 Aug 6.366870 +/- 0.533 TT =  8:48:17 (JD 2458336.866870)
Epoch 2018 Jun 19.0 TT = JDT 2458288.5   Earth MOID: 0.1066   Ma: 0.0068
M 340.04193 +/- 1.2                 (J2000 ecliptic)          AutoNEOCP
n   0.41263926 +/- 0.0219           Peri.  277.62596 +/- 0.6
a   1.78685379 +/- 0.0632           Node    50.87090 +/- 0.45
e   0.4435159 +/- 0.0189            Incl.    7.20519 +/- 0.21
P   2.39/872.42d           H 20.9   G  0.15   U 10.2  
q 0.99435562 +/- 0.00157    Q 2.57935196 +/- 0.133
From 15 observations 2018 June 12-19; mean residual 0".06
Residuals in arcseconds: 
180612 F51  .11-  .10+    180613 568  .09+  .06-    180615 568  .02-  .05-    
180612 F51  .02+  .04+    180615 568  .02-  .06-    180615 568  .09-  .04-    
180612 F51  .02+  .11+    180615 568  .02+  .08-    180619 807  .06+  .01-    
180613 568  .05+  .06-    180615 568  .05-  .01-    180619 807  .01+  .14+    
180613 568  .05+  .07-    180615 568  .01+  .02-    180619 807  .06-  .03-    

Ephemerides (geocentric):
Date (UTC) HH   RA              Dec         delta   r     elong  mag " sig PA
---- -- -- --  -------------   -----------  ------ ------ -----  --- ---- ---
2018 06 19 21  22 44 58.838   -39 22 00.41  .20934 1.1275 117.3 19.7  .66  69
2018 06 19 22  22 45 24.697   -39 21 44.43  .20923 1.1273 117.2 19.7  .68  70
2018 06 19 23  22 45 50.570   -39 21 28.09  .20912 1.1271 117.2 19.7  .70  71
2018 06 20 00  22 46 16.457   -39 21 11.39  .20901 1.1269 117.1 19.7  .73  72
2018 06 20 01  22 46 42.358   -39 20 54.33  .20890 1.1267 117.1 19.7  .76  73
2018 06 20 02  22 47 08.273   -39 20 36.91  .20879 1.1264 117.0 19.7  .78  74
2018 06 20 03  22 47 34.202   -39 20 19.13  .20868 1.1262 117.0 19.7  .81  75
2018 06 20 04  22 48 00.144   -39 20 00.99  .20857 1.1260 116.9 19.7  .84  76
2018 06 20 05  22 48 26.100   -39 19 42.49  .20846 1.1258 116.9 19.7  .87  77
2018 06 20 06  22 48 52.069   -39 19 23.62  .20835 1.1256 116.8 19.7  .90  77
2018 06 20 07  22 49 18.051   -39 19 04.39  .20824 1.1254 116.8 19.7  .93  78
2018 06 20 08  22 49 44.046   -39 18 44.80  .20814 1.1252 116.7 19.7  .97  79
2018 06 20 09  22 50 10.053   -39 18 24.84  .20803 1.1250 116.7 19.7  1.0  79
2018 06 20 10  22 50 36.074   -39 18 04.52  .20792 1.1248 116.6 19.7  1.0  80
2018 06 20 11  22 51 02.107   -39 17 43.83  .20782 1.1246 116.6 19.7  1.1  80
2018 06 20 12  22 51 28.152   -39 17 22.78  .20771 1.1244 116.5 19.7  1.1  81
2018 06 20 13  22 51 54.209   -39 17 01.36  .20761 1.1242 116.5 19.7  1.1  81
2018 06 20 14  22 52 20.279   -39 16 39.57  .20750 1.1240 116.4 19.7  1.2  82
2018 06 20 15  22 52 46.360   -39 16 17.42  .20740 1.1237 116.4 19.7  1.2  82
2018 06 20 16  22 53 12.454   -39 15 54.89  .20730 1.1235 116.3 19.7  1.3  83
2018 06 20 17  22 53 38.558   -39 15 32.00  .20719 1.1233 116.3 19.7  1.3  83
2018 06 20 18  22 54 04.675   -39 15 08.74  .20709 1.1231 116.2 19.7  1.3  83
2018 06 20 19  22 54 30.802   -39 14 45.10  .20699 1.1229 116.2 19.7  1.4  84
2018 06 20 20  22 54 56.941   -39 14 21.10  .20689 1.1227 116.1 19.7  1.4  84
2018 06 20 21  22 55 23.091   -39 13 56.73  .20679 1.1225 116.1 19.7  1.5  84
2018 06 20 22  22 55 49.251   -39 13 31.98  .20669 1.1223 116.0 19.7  1.5  84
2018 06 20 23  22 56 15.423   -39 13 06.87  .20658 1.1221 116.0 19.7  1.5  85
2018 06 21 00  22 56 41.604   -39 12 41.38  .20648 1.1219 115.9 19.7  1.6  85
2018 06 21 01  22 57 07.797   -39 12 15.52  .20638 1.1217 115.9 19.7  1.6  85
2018 06 21 02  22 57 33.999   -39 11 49.28  .20629 1.1215 115.8 19.7  1.7  85
2018 06 21 03  22 58 00.211   -39 11 22.67  .20619 1.1213 115.7 19.7  1.7  85
2018 06 21 04  22 58 26.434   -39 10 55.69  .20609 1.1211 115.7 19.7  1.8  85
2018 06 21 05  22 58 52.666   -39 10 28.33  .20599 1.1209 115.6 19.7  1.8  86
2018 06 21 06  22 59 18.907   -39 10 00.60  .20589 1.1207 115.6 19.7  1.9  86
2018 06 21 07  22 59 45.159   -39 09 32.49  .20580 1.1204 115.5 19.7  1.9  86
2018 06 21 08  23 00 11.419   -39 09 04.01  .20570 1.1202 115.5 19.7  2.0  86
2018 06 21 09  23 00 37.689   -39 08 35.15  .20560 1.1200 115.4 19.7  2.0  86
2018 06 21 10  23 01 03.967   -39 08 05.91  .20551 1.1198 115.4 19.7  2.1  86
2018 06 21 11  23 01 30.254   -39 07 36.29  .20541 1.1196 115.3 19.7  2.1  86
2018 06 21 12  23 01 56.550   -39 07 06.30  .20532 1.1194 115.3 19.7  2.2  86
2018 06 21 13  23 02 22.855   -39 06 35.93  .20522 1.1192 115.2 19.7  2.2  86
2018 06 21 14  23 02 49.167   -39 06 05.18  .20513 1.1190 115.2 19.7  2.3  86
2018 06 21 15  23 03 15.488   -39 05 34.06  .20504 1.1188 115.1 19.7  2.3  86
2018 06 21 16  23 03 41.817   -39 05 02.55  .20494 1.1186 115.1 19.7  2.4  86
2018 06 21 17  23 04 08.154   -39 04 30.66  .20485 1.1184 115.0 19.7  2.5  86
2018 06 21 18  23 04 34.498   -39 03 58.40  .20476 1.1182 115.0 19.7  2.5  87
2018 06 21 19  23 05 00.850   -39 03 25.75  .20467 1.1180 114.9 19.7  2.6  87
2018 06 21 20  23 05 27.209   -39 02 52.73  .20457 1.1178 114.9 19.7  2.6  87